• In India
  • List of Countries
  • For 7 days
  • Water Temperature
  • Satellite Maps
  • Weather Map
  • Weather Widgets
  • user-avatar
    Login

    Hourly Weather Popruzhna

    Today, 21 August, Tuesday

    Time Temperature Precipitation Wind Pressure Humidity
    00:00 +22°C° 0 mm 1 mps 744 mmHg 63%
    01:00 +22°C° 0 mm 1 mps 744 mmHg 64%
    02:00 +21°C° 0 mm 1 mps 744 mmHg 64%
    03:00 +21°C° 0 mm 1 mps 744 mmHg 65%
    04:00 +21°C° 0 mm 1 mps 744 mmHg 66%
    05:00 +21°C° 0 mm 1 mps 744 mmHg 67%
    06:00 +22°C° 0 mm 1 mps 744 mmHg 65%
    07:00 +24°C° 0 mm 2 mps 744 mmHg 63%
    08:00 +25°C° 0 mm 2 mps 744 mmHg 61%
    09:00 +27°C° 0 mm 2 mps 744 mmHg 57%
    10:00 +28°C° 0 mm 2 mps 744 mmHg 53%
    11:00 +30°C° 0 mm 3 mps 744 mmHg 49%
    12:00 +30°C° 0.1 mm 3 mps 744 mmHg 48%
    13:00 +30°C° 0.1 mm 3 mps 744 mmHg 47%
    14:00 +32°C° 0.1 mm 4 mps 743 mmHg 46%
    15:00 +30°C° 0 mm 4 mps 743 mmHg 50%
    16:00 +30°C° 0 mm 4 mps 743 mmHg 54%
    17:00 +29°C° 0 mm 4 mps 743 mmHg 58%
    18:00 +27°C° 0.1 mm 3 mps 743 mmHg 65%
    19:00 +25°C° 0.1 mm 3 mps 743 mmHg 72%
    20:00 +22°C° 0.1 mm 3 mps 744 mmHg 79%
    21:00 +22°C° 0 mm 3 mps 744 mmHg 80%
    22:00 +21°C° 0 mm 3 mps 744 mmHg 82%
    23:00 +20°C° 0 mm 3 mps 745 mmHg 83%

    Tomorrow, 22 August, Wednesday

    Time Temperature Precipitation Wind Pressure Humidity
    00:00 +19°C° 0 mm 3 mps 745 mmHg 83%
    01:00 +18°C° 0 mm 3 mps 745 mmHg 84%
    02:00 +18°C° 0 mm 3 mps 745 mmHg 84%
    03:00 +17°C° 0 mm 3 mps 746 mmHg 85%
    04:00 +17°C° 0 mm 3 mps 746 mmHg 86%
    05:00 +16°C° 0 mm 3 mps 746 mmHg 87%
    06:00 +17°C° 0 mm 3 mps 747 mmHg 82%
    07:00 +18°C° 0 mm 3 mps 747 mmHg 77%
    08:00 +20°C° 0 mm 3 mps 748 mmHg 73%
    09:00 +21°C° 0 mm 3 mps 748 mmHg 66%
    10:00 +22°C° 0 mm 4 mps 748 mmHg 60%
    11:00 +23°C° 0 mm 4 mps 748 mmHg 53%
    12:00 +25°C° 0 mm 4 mps 748 mmHg 52%
    13:00 +25°C° 0 mm 4 mps 748 mmHg 50%
    14:00 +26°C° 0 mm 4 mps 748 mmHg 48%
    15:00 +25°C° 0 mm 4 mps 748 mmHg 49%
    16:00 +25°C° 0 mm 4 mps 748 mmHg 50%
    17:00 +24°C° 0 mm 3 mps 748 mmHg 51%
    18:00 +22°C° 0 mm 3 mps 748 mmHg 55%
    19:00 +20°C° 0 mm 3 mps 748 mmHg 60%
    20:00 +18°C° 0 mm 2 mps 749 mmHg 64%
    21:00 +17°C° 0 mm 2 mps 749 mmHg 65%
    22:00 +17°C° 0 mm 2 mps 749 mmHg 67%
    23:00 +16°C° 0 mm 2 mps 749 mmHg 68%

    Day after tomorrow, 23 August, Thursday

    Time Temperature Precipitation Wind Pressure Humidity
    00:00 +15°C° 0 mm 2 mps 749 mmHg 69%
    01:00 +14°C° 0 mm 3 mps 749 mmHg 69%
    02:00 +13°C° 0 mm 3 mps 749 mmHg 69%
    03:00 +14°C° 0 mm 2 mps 749 mmHg 71%
    04:00 +13°C° 0 mm 2 mps 749 mmHg 72%
    05:00 +13°C° 0 mm 2 mps 749 mmHg 74%
    06:00 +14°C° 0 mm 2 mps 750 mmHg 70%
    07:00 +16°C° 0 mm 2 mps 750 mmHg 66%
    08:00 +18°C° 0 mm 3 mps 750 mmHg 63%
    09:00 +19°C° 0 mm 3 mps 750 mmHg 57%
    10:00 +21°C° 0 mm 3 mps 750 mmHg 52%
    11:00 +22°C° 0 mm 3 mps 749 mmHg 47%
    12:00 +24°C° 0 mm 2 mps 749 mmHg 44%
    13:00 +24°C° 0 mm 2 mps 749 mmHg 41%
    14:00 +25°C° 0 mm 2 mps 748 mmHg 39%
    15:00 +25°C° 0 mm 2 mps 748 mmHg 41%
    16:00 +25°C° 0 mm 2 mps 748 mmHg 42%
    17:00 +25°C° 0 mm 2 mps 748 mmHg 44%
    18:00 +23°C° 0 mm 2 mps 748 mmHg 47%
    19:00 +20°C° 0 mm 2 mps 748 mmHg 51%
    20:00 +18°C° 0 mm 2 mps 748 mmHg 54%
    21:00 +17°C° 0 mm 2 mps 748 mmHg 53%
    22:00 +16°C° 0 mm 2 mps 748 mmHg 53%
    23:00 +16°C° 0 mm 2 mps 748 mmHg 52%

    24 August, Friday

    Time Temperature Precipitation Wind Pressure Humidity
    00:00 +15°C° 0 mm 2 mps 747 mmHg 53%
    01:00 +15°C° 0 mm 2 mps 747 mmHg 54%
    02:00 +15°C° 0 mm 2 mps 747 mmHg 55%
    03:00 +14°C° 0 mm 2 mps 747 mmHg 56%
    04:00 +14°C° 0 mm 2 mps 747 mmHg 58%
    05:00 +14°C° 0 mm 2 mps 747 mmHg 59%
    06:00 +15°C° 0 mm 2 mps 747 mmHg 57%
    07:00 +17°C° 0 mm 3 mps 747 mmHg 54%
    08:00 +19°C° 0 mm 3 mps 747 mmHg 52%
    09:00 +21°C° 0 mm 3 mps 747 mmHg 46%
    10:00 +24°C° 0 mm 3 mps 746 mmHg 41%
    11:00 +26°C° 0 mm 4 mps 746 mmHg 36%
    12:00 +26°C° 0 mm 3 mps 746 mmHg 35%
    13:00 +27°C° 0 mm 3 mps 745 mmHg 33%
    14:00 +27°C° 0 mm 3 mps 745 mmHg 31%
    15:00 +27°C° 0 mm 3 mps 745 mmHg 34%
    16:00 +27°C° 0 mm 2 mps 744 mmHg 37%
    17:00 +27°C° 0 mm 2 mps 744 mmHg 40%
    18:00 +25°C° 0 mm 2 mps 744 mmHg 42%
    19:00 +21°C° 0 mm 2 mps 744 mmHg 44%
    20:00 +19°C° 0 mm 2 mps 744 mmHg 46%
    21:00 +19°C° 0 mm 2 mps 744 mmHg 46%
    22:00 +18°C° 0 mm 2 mps 743 mmHg 46%
    23:00 +18°C° 0 mm 3 mps 743 mmHg 45%

    25 August, Saturday

    Time Temperature Precipitation Wind Pressure Humidity
    00:00 +17°C° 0 mm 2 mps 743 mmHg 46%
    01:00 +17°C° 0 mm 2 mps 743 mmHg 46%
    02:00 +16°C° 0 mm 2 mps 743 mmHg 46%
    03:00 +16°C° 0 mm 2 mps 743 mmHg 47%
    04:00 +16°C° 0 mm 2 mps 742 mmHg 48%
    05:00 +15°C° 0 mm 2 mps 742 mmHg 50%
    06:00 +17°C° 0 mm 2 mps 742 mmHg 49%
    07:00 +19°C° 0 mm 2 mps 743 mmHg 49%
    08:00 +21°C° 0 mm 2 mps 743 mmHg 49%
    09:00 +24°C° 0 mm 2 mps 743 mmHg 45%
    10:00 +26°C° 0 mm 2 mps 743 mmHg 40%
    11:00 +28°C° 0 mm 2 mps 743 mmHg 36%
    12:00 +29°C° 0 mm 2 mps 742 mmHg 34%
    13:00 +30°C° 0 mm 2 mps 742 mmHg 33%
    14:00 +30°C° 0 mm 3 mps 742 mmHg 31%
    15:00 +30°C° 0 mm 2 mps 742 mmHg 35%
    16:00 +30°C° 0 mm 2 mps 741 mmHg 38%
    17:00 +30°C° 0 mm 1 mps 741 mmHg 42%
    18:00 +28°C° 0 mm 1 mps 741 mmHg 44%
    19:00 +26°C° 0 mm 2 mps 741 mmHg 46%
    20:00 +24°C° 0 mm 2 mps 741 mmHg 48%
    21:00 +24°C° 0 mm 2 mps 741 mmHg 48%
    22:00 +23°C° 0 mm 2 mps 741 mmHg 48%
    23:00 +21°C° 0 mm 2 mps 741 mmHg 49%

    26 August, Sunday

    Time Temperature Precipitation Wind Pressure Humidity
    00:00 +21°C° 0 mm 2 mps 741 mmHg 47%
    01:00 +21°C° 0 mm 3 mps 741 mmHg 46%
    02:00 +20°C° 0 mm 3 mps 741 mmHg 45%
    03:00 +20°C° 0 mm 2 mps 741 mmHg 44%
    04:00 +20°C° 0 mm 2 mps 741 mmHg 44%
    05:00 +20°C° 0 mm 2 mps 741 mmHg 43%
    06:00 +21°C° 0 mm 2 mps 741 mmHg 46%
    07:00 +23°C° 0 mm 2 mps 742 mmHg 48%
    08:00 +24°C° 0 mm 2 mps 742 mmHg 51%
    09:00 +26°C° 0 mm 3 mps 742 mmHg 47%
    10:00 +28°C° 0 mm 3 mps 742 mmHg 43%
    11:00 +30°C° 0 mm 3 mps 742 mmHg 39%
    12:00 +30°C° 0 mm 3 mps 741 mmHg 37%
    13:00 +31°C° 0 mm 3 mps 741 mmHg 35%
    14:00 +31°C° 0 mm 3 mps 741 mmHg 32%
    15:00 +31°C° 0 mm 3 mps 741 mmHg 35%
    16:00 +30°C° 0 mm 3 mps 741 mmHg 38%
    17:00 +29°C° 0 mm 3 mps 740 mmHg 41%
    18:00 +27°C° 0 mm 3 mps 740 mmHg 42%
    19:00 +25°C° 0 mm 3 mps 740 mmHg 42%
    20:00 +22°C° 0 mm 3 mps 741 mmHg 42%
    21:00 +21°C° 0 mm 3 mps 740 mmHg 41%
    22:00 +21°C° 0 mm 3 mps 740 mmHg 40%
    23:00 +20°C° 0 mm 3 mps 740 mmHg 39%
    Show more